Location: Ostrava
(49.8330°N, 18.2830°E)
Time: 11:29:00
(UTC+02:00)

Cosmos 2219 Rocket - Visible Passes

Search period start: 15 September 2014 00:00
Search period end: 25 September 2014 00:00
Orbit: 828 x 847 km, 71.0° (Epoch: 14 September)

Date Brightness Start Highest point End Pass type
(mag) Time Alt. Az. Time Alt. Az. Time Alt. Az.
15 Sep 4.3 02:12:59 17° E 02:13:04 17° E 02:16:30 10° ENE visible
15 Sep 2.1 03:54:44 51° SSW 03:56:14 88° WNW 04:01:53 10° NNE visible
15 Sep 3.6 05:36:44 10° W 05:41:01 22° NW 05:45:21 10° N visible
16 Sep 4.4 01:57:25 15° E 01:57:25 15° E 02:00:03 10° ENE visible
16 Sep 2.0 03:39:09 66° SSW 03:39:58 87° ESE 03:45:38 10° NNE visible
16 Sep 3.6 05:20:54 12° W 05:24:42 23° NW 05:29:07 10° NNE visible
17 Sep 4.5 01:41:47 14° E 01:41:47 14° E 01:43:35 10° ENE visible
17 Sep 2.0 03:23:32 81° SSE 03:23:43 83° ESE 03:29:22 10° NNE visible
17 Sep 3.6 05:05:16 16° W 05:08:23 24° NW 05:12:54 10° NNE visible
18 Sep 4.7 01:26:08 12° ENE 01:26:08 12° ENE 01:27:04 10° ENE visible
18 Sep 2.2 03:07:52 73° ENE 03:07:52 73° ENE 03:13:06 10° NNE visible
18 Sep 3.5 04:49:36 19° WNW 04:52:04 25° NW 04:56:41 10° NNE visible
19 Sep 4.8 01:10:27 10° ENE 01:10:27 10° ENE 01:10:29 10° ENE visible
19 Sep 2.6 02:52:11 59° ENE 02:52:11 59° ENE 02:56:50 10° NNE visible
19 Sep 3.4 04:33:55 22° WNW 04:35:45 26° NW 04:40:27 10° NNE visible
20 Sep 3.0 02:36:28 48° NE 02:36:28 48° NE 02:40:34 10° NNE visible
20 Sep 3.3 04:18:12 25° WNW 04:19:27 28° NW 04:24:14 10° NNE visible
21 Sep 3.3 02:20:43 39° NE 02:20:43 39° NE 02:24:17 10° NNE visible
21 Sep 3.3 04:02:27 28° WNW 04:03:08 29° NW 04:08:00 10° NNE visible
21 Sep 4.4 05:48:11 10° NNW 05:49:10 10° NNW 05:50:09 10° N visible
22 Sep 3.7 02:04:58 32° NE 02:04:58 32° NE 02:08:01 10° NE visible
22 Sep 3.3 03:46:41 30° NW 03:46:50 30° NW 03:51:47 10° NNE visible
22 Sep 4.4 05:31:29 10° NW 05:32:48 11° NNW 05:34:07 10° N visible
23 Sep 4.0 01:49:10 27° NE 01:49:10 27° NE 01:51:44 10° NE visible
23 Sep 3.3 03:30:54 32° NW 03:30:54 32° NW 03:35:33 10° NNE visible
23 Sep 4.4 05:14:51 10° NW 05:16:26 11° NNW 05:18:02 10° N visible
24 Sep 4.2 01:33:22 23° NE 01:33:22 23° NE 01:35:28 10° NE visible
24 Sep 3.4 03:15:06 32° NNW 03:15:06 32° NNW 03:19:19 10° NNE visible
24 Sep 4.4 04:58:15 10° NW 05:00:05 11° NNW 05:01:55 10° N visible
